RH
11 11 12 10 14 17 22 33 48 60 61 61 57 62 76 74 72 70 75 75 73 78 76 76 82 86 86 87 86 86 71 56
12 13 13 12 18 23 28 33 48 55 60 70 77 74 80 76 72 72 73 79 77 75 81 79 90 92 89 86 86 83 79 54
13 13 14 18 20 30 30 34 43 52 69 76 66 62 67 63 64 71 76 78 77 79 82 88 95 95 92 92 89 84 82 62
11 11 14 16 26 33 34 35 40 56 75 69 58 60 75 72 78 73 74 77 89 90 91 90 92 96 94 91 86 79 84 72
9 11 14 18 24 32 35 36 39 63 76 64 60 61 71 65 63 69 74 72 80 90 92 93 95 94 93 93 84 80 76 68
18 17 16 16 20 36 43 39 41 64 67 58 58 54 55 52 52 60 71 77 79 87 93 96 97 94 94 91 92 84 77 66
22 22 27 21 38 45 54 47 44 59 65 58 60 57 52 49 54 58 74 75 74 86 88 95 95 95 96 93 91 88 77 70
28 28 29 26 38 54 66 63 54 66 69 63 57 56 54 55 56 57 68 76 88 87 92 97 96 93 95 94 92 91 85 74
34 36 38 39 46 54 71 70 74 79 70 66 58 56 53 54 57 52 58 73 76 84 94 96 96 94 94 94 94 92 92 89
39 44 48 50 54 61 71 74 79 82 78 71 61 58 56 56 57 60 61 66 78 82 95 96 96 95 95 95 95 93 93 92
51 52 58 59 61 67 74 76 79 77 74 68 59 59 56 57 67 70 69 81 84 92 96 96 97 97 95 95 95 93 93 92
52 62 68 76 73 71 76 79 81 80 74 69 60 55 58 62 70 69 74 85 87 90 93 93 95 96 96 96 96 95 92 92
46 56 66 75 85 81 79 84 88 83 75 72 66 59 61 66 69 71 78 90 90 92 90 92 94 95 96 95 96 95 93 94
42 46 56 72 82 85 90 88 85 86 78 72 73 69 66 69 70 76 89 93 93 91 92 94 93 93 94 94 95 93 93 90
45 51 56 63 79 84 86 88 90 90 79 73 70 76 71 67 72 72 84 92 93 94 93 91 90 89 90 92 92 91 80 71
46 52 59 60 72 84 85 87 87 87 86 77 78 70 71 71 74 68 74 88 92 90 90 91 91 93 91 87 85 81 78 91
47 47 49 57 67 81 86 88 89 85 85 89 67 67 69 69 67 74 80 78 86 91 92 91 94 92 100 100 97 93 94 96
46 45 48 47 58 75 89 88 87 85 84 84 87 76 79 77 66 67 71 80 74 85 89 94 95 92 100 100 100 93 94 93
46 44 44 44 45 52 66 83 87 88 88 85 86 88 89 83 79 70 70 76 81 84 83 83 94 96 100 100 100 92 96 99
Wind_Speed
15 17 17 16 13 11 11 13 17 16 12 12 11 9 8 7 10 10 14 11 14 12 10 11 11 9 10 9 11 9 10 10
16 16 16 16 12 11 14 15 18 14 14 12 10 11 8 8 10 12 13 9 13 13 9 11 9 10 11 13 10 13 9 10
18 17 16 14 12 13 14 16 18 16 11 9 11 11 10 10 9 10 12 12 12 11 11 9 9 8 13 12 12 8 6 8
20 18 16 13 15 15 15 16 18 16 13 11 12 10 5 7 7 8 11 14 12 10 10 10 10 7 11 13 15 16 10 11
15 12 12 15 15 13 14 16 18 17 17 17 19 13 10 10 10 10 10 14 14 13 12 12 11 11 12 12 12 14 14 13
10 13 13 15 14 12 12 15 17 19 19 18 14 15 11 10 9 11 13 13 16 16 13 12 10 12 14 16 14 13 12 13
5 5 5 10 10 9 9 13 16 17 15 18 19 16 13 10 10 9 8 8 10 13 15 12 12 11 11 15 16 15 13 13
1 3 2 3 9 8 7 12 14 12 14 15 16 14 13 12 11 9 8 6 5 9 11 11 11 15 13 13 15 15 12 12
7 6 5 3 3 8 8 12 10 9 12 13 13 13 9 8 9 8 7 7 8 11 10 11 12 15 14 15 13 14 12 10
9 9 8 7 3 3 5 9 10 10 13 11 13 12 11 10 10 8 8 6 6 8 9 10 12 15 16 16 13 16 15 12
8 9 9 7 2 3 5 6 8 11 14 10 12 12 11 8 7 6 6 6 7 8 8 8 9 9 14 14 11 15 15 12
9 7 8 9 6 1 4 5 7 8 10 8 10 11 11 8 6 7 8 7 9 9 9 9 10 9 10 12 11 12 16 15
10 10 9 10 11 7 2 4 4 6 4 5 7 9 9 9 7 8 7 8 8 9 9 10 10 10 10 10 11 11 15 16
12 12 13 11 10 10 12 3 2 2 6 8 5 9 9 8 8 6 8 9 9 8 9 9 10 11 10 9 8 10 10 11
11 11 11 11 10 9 9 10 12 4 6 7 9 8 8 9 8 9 9 9 9 10 9 9 10 11 11 11 10 11 14 14
10 11 10 10 11 10 9 9 9 10 9 6 10 10 10 10 8 9 9 10 9 11 11 9 9 7 7 12 11 11 10 7
10 10 10 9 9 9 9 10 9 10 11 12 10 9 8 8 8 8 8 10 11 10 11 12 11 8 10 9 8 10 9 8
9 9 9 9 9 7 8 10 10 10 12 12 15 5 6 4 8 9 9 9 10 12 13 11 11 11 15 16 15 8 9 9
9 9 9 10 9 8 8 9 9 9 11 12 13 13 10 5 7 8 10 7 7 6 7 11 10 9 15 16 17 12 9 7
Wind_Direction
220 226 230 232 224 228 236 194 199 196 194 200 193 175 196 182 202 198 201 214 213 211 208 196 178 170 165 168 174 185 199 208
245 240 237 231 221 219 226 201 197 190 199 188 178 189 180 191 200 204 207 191 211 213 206 194 186 174 174 174 175 188 207 205
243 243 239 231 223 216 218 203 197 193 195 185 184 200 184 195 201 194 201 204 205 206 201 189 171 178 175 175 182 180 196 217
244 241 238 206 214 220 214 201 198 182 177 189 199 194 137 187 196 209 190 195 190 190 194 192 194 193 172 181 189 178 186 201
251 256 244 231 216 216 215 203 199 169 180 201 196 183 188 200 189 201 200 200 192 189 192 197 188 189 183 183 195 181 186 185
240 236 242 239 213 194 217 206 200 173 190 199 199 198 193 181 198 186 198 192 198 194 192 194 192 193 180 182 189 197 191 185
233 241 284 247 121 179 198 222 197 172 200 201 200 201 193 184 189 191 193 202 204 194 188 186 189 196 197 184 181 192 197 201
263 12 345 201 156 166 197 223 199 187 201 207 195 198 200 197 190 193 192 194 186 199 187 195 194 194 192 185 182 186 196 194
71 50 53 68 111 161 204 213 186 186 213 201 196 194 196 199 201 211 210 215 203 206 198 196 196 196 192 185 187 185 183 198
63 65 36 25 39 268 203 224 175 177 205 211 199 194 199 202 209 208 200 192 212 209 198 198 201 195 187 188 185 186 184 182
58 44 35 26 13 164 214 227 189 192 213 196 197 197 198 198 211 176 200 192 188 190 184 189 184 180 183 178 185 187 174 173
82 57 47 23 1 29 204 209 223 199 230 191 196 191 200 194 205 184 190 177 190 189 181 182 173 164 169 171 175 180 167 169
82 76 54 48 21 355 171 201 222 210 194 192 211 199 196 192 200 186 172 174 179 173 181 177 171 164 164 167 169 170 175 177
86 67 57 48 38 31 17 340 194 226 212 188 191 206 195 191 184 173 166 166 168 169 166 169 164 163 167 161 157 166 172 175
79 70 62 49 36 28 30 17 5 280 219 205 200 199 201 215 179 176 167 169 168 169 164 167 165 167 169 172 181 184 195 193
80 78 72 57 33 15 23 25 10 357 346 201 208 215 212 208 167 179 172 170 173 177 172 175 168 171 170 173 181 185 180 152
82 65 58 62 46 18 8 16 15 11 9 351 244 212 223 207 194 180 167 179 175 173 178 183 183 184 183 184 184 176 167 158
72 61 47 37 50 47 23 7 10 26 15 9 348 284 203 233 220 199 195 188 188 183 176 178 186 191 183 190 192 192 181 186
62 51 45 33 30 38 51 31 16 23 26 11 360 342 360 317 221 228 205 197 183 198 181 178 181 187 181 188 189 199 193 164